• In Czech Republic
  • List of Countries
  • For 7 days
  • Water Temperature
  • Satellite Maps
  • Weather Map
  • Weather Widgets
  • user-avatar
    Login

    Hourly Weather Aranjuez

    Today, 21 June, Thursday

    Time Temperature Precipitation Wind Pressure Humidity
    00:00 +27°C° 0 mm 5 mps 719 mmHg 39%
    01:00 +26°C° 0.1 mm 5 mps 719 mmHg 42%
    02:00 +26°C° 0.1 mm 4 mps 719 mmHg 45%
    03:00 +25°C° 0.1 mm 4 mps 719 mmHg 48%
    04:00 +25°C° 0 mm 4 mps 719 mmHg 49%
    05:00 +23°C° 0 mm 4 mps 719 mmHg 49%
    06:00 +25°C° 0 mm 4 mps 720 mmHg 49%
    07:00 +26°C° 0 mm 4 mps 720 mmHg 43%
    08:00 +28°C° 0 mm 4 mps 720 mmHg 37%
    09:00 +29°C° 0 mm 4 mps 720 mmHg 31%
    10:00 +31°C° 0 mm 3 mps 720 mmHg 29%
    11:00 +33°C° 0 mm 3 mps 719 mmHg 27%
    12:00 +34°C° 0 mm 3 mps 719 mmHg 25%
    13:00 +35°C° 0 mm 3 mps 719 mmHg 23%
    14:00 +35°C° 0 mm 3 mps 719 mmHg 21%
    15:00 +36°C° 0 mm 3 mps 718 mmHg 19%
    16:00 +36°C° 0 mm 4 mps 718 mmHg 19%
    17:00 +36°C° 0 mm 4 mps 718 mmHg 19%
    18:00 +36°C° 0 mm 4 mps 718 mmHg 18%
    19:00 +34°C° 0 mm 4 mps 718 mmHg 21%
    20:00 +32°C° 0 mm 4 mps 718 mmHg 23%
    21:00 +30°C° 0 mm 4 mps 719 mmHg 25%
    22:00 +29°C° 0 mm 4 mps 719 mmHg 27%
    23:00 +28°C° 0 mm 4 mps 719 mmHg 30%

    Tomorrow, 22 June, Friday

    Time Temperature Precipitation Wind Pressure Humidity
    00:00 +27°C° 0 mm 4 mps 719 mmHg 32%
    01:00 +27°C° 0 mm 4 mps 719 mmHg 34%
    02:00 +26°C° 0 mm 4 mps 719 mmHg 36%
    03:00 +25°C° 0 mm 3 mps 719 mmHg 39%
    04:00 +25°C° 0 mm 3 mps 719 mmHg 40%
    05:00 +25°C° 0 mm 3 mps 719 mmHg 42%
    06:00 +25°C° 0 mm 4 mps 719 mmHg 43%
    07:00 +27°C° 0 mm 3 mps 719 mmHg 40%
    08:00 +28°C° 0 mm 3 mps 720 mmHg 36%
    09:00 +30°C° 0 mm 3 mps 720 mmHg 32%
    10:00 +33°C° 0 mm 3 mps 719 mmHg 28%
    11:00 +34°C° 0 mm 3 mps 719 mmHg 25%
    12:00 +35°C° 0 mm 3 mps 719 mmHg 21%
    13:00 +36°C° 0 mm 3 mps 719 mmHg 19%
    14:00 +37°C° 0 mm 3 mps 718 mmHg 18%
    15:00 +37°C° 0 mm 3 mps 718 mmHg 16%
    16:00 +37°C° 0 mm 3 mps 718 mmHg 16%
    17:00 +37°C° 0 mm 3 mps 718 mmHg 15%
    18:00 +37°C° 0 mm 2 mps 718 mmHg 15%
    19:00 +35°C° 0 mm 3 mps 718 mmHg 18%
    20:00 +33°C° 0 mm 3 mps 718 mmHg 20%
    21:00 +31°C° 0 mm 3 mps 718 mmHg 22%
    22:00 +30°C° 0 mm 3 mps 719 mmHg 26%
    23:00 +29°C° 0 mm 4 mps 719 mmHg 31%

    Day after tomorrow, 23 June, Saturday

    Time Temperature Precipitation Wind Pressure Humidity
    00:00 +28°C° 0 mm 4 mps 719 mmHg 35%
    01:00 +27°C° 0 mm 4 mps 719 mmHg 36%
    02:00 +26°C° 0 mm 4 mps 719 mmHg 38%
    03:00 +26°C° 0 mm 4 mps 719 mmHg 40%
    04:00 +26°C° 0 mm 4 mps 719 mmHg 40%
    05:00 +26°C° 0 mm 4 mps 719 mmHg 41%
    06:00 +25°C° 0 mm 4 mps 719 mmHg 41%
    07:00 +27°C° 0 mm 4 mps 719 mmHg 38%
    08:00 +29°C° 0 mm 4 mps 719 mmHg 35%
    09:00 +31°C° 0 mm 3 mps 720 mmHg 31%
    10:00 +33°C° 0 mm 3 mps 719 mmHg 28%
    11:00 +35°C° 0 mm 3 mps 719 mmHg 25%
    12:00 +36°C° 0 mm 3 mps 719 mmHg 22%
    13:00 +37°C° 0 mm 3 mps 719 mmHg 20%
    14:00 +38°C° 0 mm 2 mps 718 mmHg 19%
    15:00 +38°C° 0 mm 2 mps 718 mmHg 17%
    16:00 +38°C° 0 mm 2 mps 718 mmHg 17%
    17:00 +38°C° 0 mm 2 mps 718 mmHg 17%
    18:00 +38°C° 0 mm 2 mps 717 mmHg 17%
    19:00 +36°C° 0 mm 3 mps 718 mmHg 21%
    20:00 +34°C° 0 mm 3 mps 718 mmHg 25%
    21:00 +32°C° 0 mm 4 mps 718 mmHg 29%
    22:00 +30°C° 0 mm 4 mps 718 mmHg 33%
    23:00 +29°C° 0 mm 4 mps 718 mmHg 36%

    24 June, Sunday

    Time Temperature Precipitation Wind Pressure Humidity
    00:00 +28°C° 0 mm 4 mps 718 mmHg 40%
    01:00 +28°C° 0 mm 4 mps 718 mmHg 43%
    02:00 +27°C° 0 mm 4 mps 718 mmHg 46%
    03:00 +26°C° 0 mm 3 mps 718 mmHg 49%
    04:00 +26°C° 0 mm 3 mps 718 mmHg 51%
    05:00 +26°C° 0 mm 3 mps 718 mmHg 52%
    06:00 +25°C° 0 mm 3 mps 718 mmHg 54%
    07:00 +27°C° 0 mm 3 mps 718 mmHg 48%
    08:00 +29°C° 0 mm 3 mps 718 mmHg 43%
    09:00 +31°C° 0 mm 2 mps 719 mmHg 37%
    10:00 +32°C° 0 mm 2 mps 718 mmHg 33%
    11:00 +35°C° 0 mm 2 mps 718 mmHg 29%
    12:00 +36°C° 0 mm 1 mps 718 mmHg 25%
    13:00 +36°C° 0 mm 1 mps 718 mmHg 22%
    14:00 +38°C° 0 mm 2 mps 717 mmHg 20%
    15:00 +39°C° 0 mm 2 mps 717 mmHg 18%
    16:00 +39°C° 0 mm 2 mps 717 mmHg 17%
    17:00 +39°C° 0 mm 2 mps 716 mmHg 17%
    18:00 +39°C° 0 mm 2 mps 716 mmHg 17%
    19:00 +37°C° 0 mm 2 mps 716 mmHg 20%
    20:00 +35°C° 0 mm 2 mps 717 mmHg 22%
    21:00 +32°C° 0 mm 2 mps 717 mmHg 25%
    22:00 +31°C° 0.1 mm 3 mps 717 mmHg 29%
    23:00 +30°C° 0.1 mm 3 mps 717 mmHg 33%

    25 June, Monday

    Time Temperature Precipitation Wind Pressure Humidity
    00:00 +29°C° 0.1 mm 3 mps 717 mmHg 38%
    01:00 +28°C° 0 mm 3 mps 717 mmHg 41%
    02:00 +27°C° 0 mm 3 mps 717 mmHg 44%
    03:00 +27°C° 0 mm 3 mps 716 mmHg 48%
    04:00 +26°C° 0.1 mm 2 mps 717 mmHg 49%
    05:00 +26°C° 0.1 mm 2 mps 717 mmHg 51%
    06:00 +26°C° 0.1 mm 2 mps 717 mmHg 52%
    07:00 +28°C° 0 mm 2 mps 717 mmHg 47%
    08:00 +29°C° 0 mm 2 mps 717 mmHg 42%
    09:00 +31°C° 0 mm 2 mps 718 mmHg 37%
    10:00 +33°C° 0 mm 3 mps 717 mmHg 34%
    11:00 +34°C° 0 mm 3 mps 717 mmHg 31%
    12:00 +36°C° 0 mm 3 mps 717 mmHg 27%
    13:00 +36°C° 0 mm 3 mps 717 mmHg 25%
    14:00 +37°C° 0 mm 3 mps 717 mmHg 23%
    15:00 +38°C° 0 mm 4 mps 716 mmHg 21%
    16:00 +38°C° 0 mm 4 mps 716 mmHg 21%
    17:00 +37°C° 0 mm 4 mps 716 mmHg 22%
    18:00 +37°C° 0 mm 4 mps 716 mmHg 22%
    19:00 +35°C° 0 mm 4 mps 717 mmHg 25%
    20:00 +34°C° 0 mm 4 mps 717 mmHg 27%
    21:00 +33°C° 0 mm 4 mps 718 mmHg 30%
    22:00 +30°C° 0 mm 4 mps 718 mmHg 34%
    23:00 +29°C° 0 mm 4 mps 718 mmHg 38%

    26 June, Tuesday

    Time Temperature Precipitation Wind Pressure Humidity
    00:00 +28°C° 0 mm 3 mps 718 mmHg 41%
    01:00 +27°C° 0 mm 3 mps 718 mmHg 43%
    02:00 +27°C° 0 mm 2 mps 717 mmHg 45%
    03:00 +26°C° 0 mm 2 mps 717 mmHg 47%
    04:00 +26°C° 0 mm 2 mps 717 mmHg 47%
    05:00 +26°C° 0 mm 2 mps 717 mmHg 47%
    06:00 +26°C° 0 mm 2 mps 717 mmHg 47%
    07:00 +27°C° 0 mm 2 mps 718 mmHg 42%
    08:00 +29°C° 0 mm 2 mps 718 mmHg 37%
    09:00 +30°C° 0 mm 2 mps 718 mmHg 32%
    10:00 +32°C° 0 mm 2 mps 717 mmHg 28%
    11:00 +34°C° 0 mm 3 mps 717 mmHg 24%
    12:00 +35°C° 0 mm 3 mps 717 mmHg 20%
    13:00 +36°C° 0 mm 3 mps 717 mmHg 18%
    14:00 +37°C° 0 mm 3 mps 717 mmHg 17%
    15:00 +37°C° 0 mm 3 mps 716 mmHg 15%
    16:00 +37°C° 0 mm 3 mps 716 mmHg 15%
    17:00 +37°C° 0 mm 4 mps 716 mmHg 15%
    18:00 +37°C° 0 mm 4 mps 716 mmHg 15%
    19:00 +35°C° 0 mm 3 mps 716 mmHg 17%
    20:00 +33°C° 0 mm 3 mps 717 mmHg 19%
    21:00 +30°C° 0 mm 3 mps 717 mmHg 21%
    22:00 +29°C° 0 mm 3 mps 717 mmHg 24%
    23:00 +28°C° 0 mm 3 mps 717 mmHg 27%
    Show more